Location: Cahas Mountain Overlook
(37.0833°N, 80.1000°W)
Time: 01:55:20
(UTC-05:00)

A-11 Canister half - Pass Details

Date: 07 December 2023
Orbit: 1512 x 1687 km, 47.2° (Epoch: 01 March)

Event Time Altitude Azimuth Distance (km) Brightness Sun altitude
Exits shadow 06:19:42 13° 300° (WNW) 3,627 10.3 -11.9°
Maximum altitude 06:28:48 74° 219° (SW) 1,736 9.2 -10.2°
Drops below altitude 10° 06:38:55 10° 136° (SE) 3,941 12.4 -8.3°
Sets 06:42:05 0° 135° (SE) 4,923 13.1 -7.7°
